パンスターズ彗星

C/2018 A1 ( PanSTARRS )

English version
Home page
Updated on February 13, 2018

---------------------------------------------------------------------

・ プロフィール

発見日 2018年1月6日
発見光度 19.1等
発見者 Pan-STARRS 1 telescope (Haleakala)

・ 写真集

・ 軌道要素

Epoch 2017 Oct. 14.0 TT = JDT 2458040.5
T 2017 Oct. 20.46246 TT                                 MPCW
q   2.4203647            (2000.0)            P               Q
n   0.00765354     Peri.   96.41664     +0.13173067     -0.93836937
a  25.5012235      Node   336.60208     +0.21944685     +0.34196283
e   0.9050883      Incl.   53.57848     +0.96669029     +0.05024294
P 129
From 55 observations 2018 Jan. 6-25, mean residual 0".4.

・ 光度変化

        m1 = 12.5 + 5 logΔ + 10.0 log r

---------------------------------------------------------------------

軌道要素はM.P.E.C. 2018-B155に掲載されたものです。
光度グラフはComet for Windowsで作成したものです。

---------------------------------------------------------------------

Copyright(C) Seiichi Yoshida (comet@aerith.net). All rights reserved.